Location: Valdosta
(30.8330°N, 83.2790°W)
Time: 04:44:08
(UTC-04:00)

Daily predictions for brighter satellites

Satellite Brightness Start Highest point End
(mag) Time Altitude Azimuth Time Altitude Azimuth Time Altitude Azimuth
Terra 3.5 00:10:21 29° NW 00:10:21 29° NW 00:12:57 10° NNW
Cosmos 1943 Rocket 3.2 00:05:15 10° NNW 00:09:02 41° NW 00:09:02 41° NW
Cosmos 2344 3.9 00:56:45 56° NE 00:56:45 56° NE 01:03:12 10° NNE
CENTAUR R/B 4.4 01:03:42 20° ENE 01:03:42 20° ENE 01:05:52 10° NE
CZ-4C R/B 4.2 01:30:35 21° NW 01:30:35 21° NW 01:34:44 10° N
Cosmos 2082 Rocket 3.7 01:45:38 32° N 01:45:38 32° N 01:48:45 10° N
Cosmos 1697 Rocket 4.3 01:41:47 10° N 01:45:14 30° NNE 01:45:14 30° NNE
Cosmos 1833 Rocket 4.2 01:50:36 32° N 01:50:36 32° N 01:53:38 10° NNE
Longmarch 3A Rocket 4.5 00:59:13 10° W 02:01:19 70° SSW 02:01:19 70° SSW
Lacrosse 5 3.9 02:05:30 10° NNW 02:08:19 24° NNE 02:08:19 24° NNE
CZ-2C R/B 4.3 02:17:20 10° N 02:20:21 29° NNW 02:20:21 29° NNW
USA 215 4.1 02:19:39 10° NE 02:24:05 41° ENE 02:24:05 41° ENE
SL-16 R/B 4.3 02:27:42 10° NNE 02:31:41 19° ENE 02:33:31 17° E
Cosmos 2322 Rocket 3.9 02:38:04 10° N 02:42:42 26° ENE 02:43:42 24° E
CENTAUR R/B 3.7 02:50:52 31° NW 02:50:52 31° NW 02:56:30 10° N
Cosmos 1745 Rocket 4.4 02:54:49 57° NNW 02:54:49 57° NNW 02:59:53 10° N
Cosmos 1709 Rocket 4.4 03:05:15 56° E 03:05:15 56° E 03:11:10 10° NNE
Nadezhda 1 Rocket 4.2 02:59:23 10° N 03:04:27 63° N 03:04:27 63° N
Cosmos 1980 Rocket 3.5 03:05:51 10° NNW 03:08:46 31° NW 03:08:46 31° NW
NPP 4.2 03:08:48 10° NNE 03:13:03 56° NNE 03:13:03 56° NNE
SL-08 R/B 4.3 03:18:21 45° NE 03:18:21 45° NE 03:22:14 10° N
USA 229 DEB 4.5 03:19:54 38° ESE 03:20:26 39° ESE 03:26:47 10° NE
USA 229 4.5 03:19:59 38° ESE 03:20:33 38° ESE 03:26:52 10° NE
Lacrosse 5 rocket 3.0 03:21:41 10° NNW 03:25:32 35° NE 03:25:32 35° NE
CZ-3 Stage 3 3.3 03:05:01 10° W 03:27:13 86° S 03:31:16 10° E
Centaur D-1A AC-32 3.8 03:32:17 38° SE 03:32:17 38° SE 03:39:42 10° E
ATLAS 5 CENTAUR R/B 2.5 03:37:19 51° N 03:37:19 51° N 03:41:21 10° NNE
Cosmos 923 Rocket 4.4 03:32:46 10° N 03:37:56 59° ENE 03:38:08 58° E
IRS-1C 4.2 03:33:36 10° NNE 03:38:29 75° NNE 03:38:29 75° NNE
Spot 4 Rocket 4.2 03:35:57 10° NNE 03:40:49 65° E 03:40:49 65° E
Cosmos 1680 Rocket 4.1 03:41:19 10° N 03:46:24 52° ENE 03:47:39 42° ESE
Cosmos 1455 4.3 03:43:02 10° N 03:44:26 22° N 03:44:26 22° N
Resurs 1-4 Rocket 3.3 03:43:15 10° NNE 03:48:06 35° E 03:49:25 30° SE
Cosmos 773 Rocket 4.2 03:43:15 10° NNW 03:47:30 61° NNW 03:47:30 61° NNW
Cosmos 1626 4.4 03:56:33 18° NNW 03:56:33 18° NNW 03:57:47 10° NNW
Cosmos 1833 4.2 03:57:55 68° W 03:58:09 68° WNW 04:03:53 10° NNE
ERS-1 4.4 03:58:29 10° N 04:03:38 81° WNW 04:03:51 79° WSW
Cosmos 304 Rocket 3.9 04:00:02 10° N 04:04:51 69° ENE 04:05:41 56° SE
ARIANE 5 R/B 2.4 03:59:54 10° NNE 04:04:58 77° ESE 04:05:28 69° SSE
Cosmos 1703 Rocket 3.6 04:03:44 10° N 04:08:03 71° E 04:08:03 71° E
USA 215 4.3 04:02:58 10° NNE 04:08:46 35° NW 04:11:25 26° W
OAO 3 Rocket 3.7 04:08:11 42° NW 04:09:21 55° N 04:13:57 10° E
Cosmos 1898 Rocket 3.5 04:09:12 60° SSE 04:09:59 71° ESE 04:15:09 10° NNE
Cosmos 2181 Rocket 4.0 04:04:25 10° NNW 04:10:30 63° W 04:11:26 56° SW
IRS-1D 3.6 04:05:47 10° NNE 04:11:08 79° ESE 04:12:09 58° S
Cosmos 1937 Rocket 4.0 04:13:22 39° SSE 04:14:56 54° ESE 04:20:06 10° NNE
SL-16 R/B 2.6 04:10:34 10° NNW 04:15:18 45° W 04:15:18 45° W
ADEOS 4.2 04:17:02 10° N 04:21:48 37° WNW 04:22:03 37° WNW
UNK 4.3 04:19:25 24° SE 04:21:57 55° ENE 04:26:25 10° N
UNKNOWN OBJECT B 3.2 04:22:07 10° NNE 04:25:55 55° E 04:26:32 49° SE
Cosmos 2322 Rocket 3.1 04:21:43 10° NW 04:25:26 30° WNW 04:25:26 30° WNW
Okean 1-7 3.1 04:23:05 10° N 04:27:27 72° E 04:28:49 42° SSE
SL-08 ROCKET BODY 4.3 04:26:10 40° S 04:28:31 84° W 04:34:39 10° N
Cosmos 2150 Rocket 4.0 04:29:36 52° SW 04:30:45 67° WNW 04:36:06 10° N
Cosmos 2074 Rocket 4.0 04:29:54 43° SW 04:31:51 62° W 04:38:02 10° N
Meteor 2-3 Rocket 3.8 04:30:01 32° S 04:32:49 78° E 04:38:37 10° N
ISS -2.5 04:33:15 10° NW 04:36:26 50° NE 04:39:36 10° ESE
Cosmos 2184 Rocket 4.2 04:36:51 38° SW 04:39:07 57° W 04:45:21 10° N
SEDSat Delta rocket 3.9 04:35:04 23° W 04:39:30 72° SSW 04:46:08 10° ESE
Cosmos 2112 Rocket 4.2 04:36:30 10° NNW 04:41:29 49° WSW 04:42:37 41° SW
CZ-2D R/B 2.1 04:36:47 10° N 04:42:00 67° WNW 04:44:01 38° SW
EO 1 Del DPAF 3.4 04:44:32 51° W 04:44:32 51° W 04:48:19 10° NNW
NOSS 3-1 (C) 4.0 04:41:19 23° S 04:44:40 49° ESE 04:50:35 10° NE
SL-16 R/B 2.5 04:40:03 16° S 04:45:15 75° WSW 04:51:32 10° NNW
Cosmos 2227 Rocket 3.2 04:49:57 13° S 04:54:38 43° ESE 04:59:56 10° NE
GPS 2-04 Rocket1 4.1 04:54:56 19° SSE 04:55:13 20° SSE 04:57:47 10° E
In-Cosmos 22 Rocket 4.2 04:53:25 32° SW 04:55:40 56° W 05:00:58 10° N
Cosmos 2360 Rocket 2.2 04:50:39 10° NNW 04:56:10 59° WSW 05:01:41 10° S
Okean O Rocket 1.6 04:51:58 10° NNE 04:56:23 80° ESE 04:59:01 24° S
PSLV R/B 3.8 04:58:29 10° NNE 05:02:29 90° NW 05:04:50 25° SSW
ADEOS II 4.5 05:01:33 10° NE 05:05:18 20° E 05:09:01 10° SE
GP-B 4.5 05:02:29 10° NNE 05:06:38 38° E 05:10:46 10° SSE
CZ-4B R/B 3.3 05:02:44 10° NNE 05:08:15 82° ESE 05:13:27 12° S
Cosmos 2219 4.3 05:07:10 22° WSW 05:09:39 30° WNW 05:14:39 10° N
ATLAS CENTAUR R/B 1.6 05:07:33 10° NNW 05:12:04 74° ENE 05:16:12 10° SSE
ATLAS 2A CENTAUR R/B 4.2 05:07:37 20° WSW 05:14:02 73° SSE 06:23:55 10° E
Cosmos 990 Rocket 4.2 05:12:47 23° SW 05:15:50 53° WNW 05:20:53 10° N
Cosmos 2322 4.2 05:11:08 10° NW 05:16:23 38° WSW 05:21:36 10° S
Cosmos 1782 3.8 05:12:47 10° N 05:16:39 47° E 05:20:29 10° SSE
CZ-4B R/B 3.1 05:13:08 10° NNE 05:17:18 79° E 05:21:30 11° S
GPS 2-05 Rocket1 3.9 05:15:08 10° WNW 05:18:19 42° N 05:21:36 10° E
H-2A R/B 4.3 05:14:01 10° W 05:20:45 82° SSW 06:30:36 10° ESE
CZ-2D R/B 4.3 05:21:26 10° N 05:25:07 32° WNW 05:27:15 19° SW
DELTA 2 R/B (1) 3.6 05:22:36 19° WSW 05:26:44 85° NNW 05:32:21 10° ENE
Okean-O 3.3 05:22:23 10° NNE 05:26:44 55° E 05:31:04 10° S
Cosmos 1862 4.3 05:23:34 10° SSE 05:27:24 48° E 05:31:15 10° NNE
Cosmos 2297 Rocket 2.7 05:21:54 10° S 05:27:26 58° ESE 05:32:59 10° NNE
Resurs 1-4 Rocket 3.5 05:23:36 10° NNW 05:27:40 23° WNW 05:30:30 15° WSW
Cosmos 1408 4.3 05:25:07 10° SSE 05:28:25 33° E 05:31:45 10° NNE
Cosmos 1340 Rocket 2.9 05:28:10 14° SSW 05:31:33 58° W 05:35:31 10° N
NOSS 3-1 (A) 3.4 05:26:27 14° SSW 05:31:35 90° ESE 05:37:52 10° NNE
Star 37E S/N 40062 4.2 05:32:16 17° SSW 05:33:10 23° SSE 05:35:56 10° E
GOES 2 Rocket 3.1 05:30:15 16° WSW 05:33:56 63° S 05:38:04 10° E
Cosmos 1356 Rocket 3.3 05:30:25 10° S 05:34:32 81° W 05:38:36 10° N
CZ-4B DEB 4.3 05:29:33 10° N 05:34:59 63° WNW 05:40:25 10° SSW
MOZ.5/SAFIR/RUBIN 5/SL-8 3.7 05:31:48 10° S 05:36:28 82° WSW 05:41:11 10° NNW
Intercosmos 24 Rocket 4.4 05:32:43 10° SSW 05:36:49 55° W 05:40:18 10° N
Cosmos 2333 Rocket 3.3 05:32:54 10° N 05:38:26 49° ENE 05:43:56 10° SE
Cosmos 2082 3.7 05:33:44 10° SSW 05:39:24 74° WNW 05:45:08 10° NNE
Cosmos 1892 4.0 05:37:39 15° SW 05:39:49 24° W 05:43:02 10° NNW
Cosmos 1825 2.9 05:37:35 10° S 05:41:18 55° E 05:45:01 10° NNE
Cosmos 1733 Rocket 4.1 05:38:50 14° SW 05:41:38 26° W 05:45:20 10° NNW
Coronas F rocket 2.2 05:42:41 15° SW 05:44:32 31° W 05:47:01 10° NNW
Cosmos 1782 Rocket 3.8 05:40:24 10° S 05:44:44 70° E 05:49:04 10° N
Thor Agena Rocket 3.8 05:41:25 10° S 05:46:33 52° W 05:51:43 10° NNW
COSMOS 2428 3.1 05:43:31 10° NW 05:48:50 42° WSW 05:54:08 10° S
OAO 3 Rocket 3.1 05:48:19 10° WNW 05:52:57 66° SSW 05:57:38 10° ESE
Okean 2 Rocket 3.3 05:49:10 10° S 05:53:35 76° E 05:58:05 10° N
Iridium 4 Rocket 2.9 05:49:45 10° N 05:53:56 72° W 05:58:03 10° S
ATLAS 2AS CENTAUR R/B 3.7 05:48:40 10° S 05:55:37 54° ESE 06:03:13 10° NE
Cosmos 1125 Rocket 3.8 05:52:14 10° SSW 05:57:21 52° WNW 06:02:31 10° N
Cosmos 389 Rocket 4.3 05:59:24 10° NW 06:01:37 15° W 06:03:48 10° SW
Cosmos 2237 Rocket 2.6 05:57:56 10° NNW 06:03:38 73° ENE 06:09:18 10° SSE
NOSS 0 Rocket 3.9 06:01:04 10° NNW 06:07:14 79° WSW 06:13:21 10° SSE
